Tracking 28125 objects as of 3-Oct-2023
HD Live streaming from Space Station
objects crossing your sky now

GEARRS-3

Track GEARRS-3 now!
10-day predictions


NORAD ID: 51097
Int'l Code: 2022-003D
Perigee: 446.9 km
Apogee: 459.7 km
Inclination: 45.0 °
Period: 93.5 minutes
Semi major axis: 6824 km
RCS: Unknown
Launch date: January 13, 2022
Source: United States (US)
Launch site: Pegasus launched from Western Range Air Space (WRAS)
Your satellite tracking list
Your tracking list is empty




NASA's NSSDC Master Catalog

Two Line Element Set (TLE):
1 51097U 22003D   23274.67333562  .00037934  00000-0  93355-3 0  9996
2 51097  44.9562   6.8586 0009345 307.1007  52.9025 15.39989577 95758
Source of the keplerian elements: AFSPC